Location: Kershaw
(34.5481°N, 80.5823°W)
Time: 16:59:53
(UTC+00:00)

Vanguard 1 Rocket - Pass Details

Date: 01 October 2022
Orbit: 650 x 4225 km, 34.3° (Epoch: 08 December)

Event Time Altitude Azimuth Distance (km) Brightness Sun altitude
Rises 20:30:29 0° 187° (S) 8,308 12.8 29.9°
Reaches altitude 10° 20:40:00 10° 171° (S) 7,420 12.3 28.2°
Maximum altitude 20:53:55 18° 138° (SE) 6,454 11.7 25.6°
Drops below altitude 10° 21:05:47 10° 104° (ESE) 6,376 11.3 23.3°
Sets 21:12:29 0° 87° (E) 6,791 11.3 22.0°
